GFSCGP_sfc_rhum_339.txt.gz
RH
91 97 98 96 65 81 46 39 48 48 49 67 86 89 78 80 87 85 86 86 87 88 81 83 87 83 82 79 78 77 80 81 81 84 81 80 79 78 76 73 72 69 69 71
90 98 83 88 77 66 50 39 55 48 50 79 94 87 79 79 80 79 84 80 83 84 86 90 92 87 82 81 79 80 77 83 81 79 77 75 74 75 72 74 74 71 71 74
91 92 79 91 60 54 45 36 57 49 59 66 75 86 94 84 81 81 84 81 82 83 89 92 92 88 85 84 80 77 77 81 81 80 78 79 77 81 81 81 77 75 72 76
94 86 86 78 53 42 45 44 47 49 56 75 48 63 61 94 93 93 88 88 85 80 78 82 86 85 87 81 76 74 76 79 80 81 79 77 79 79 77 78 75 75 73 76
98 94 84 59 51 42 44 45 43 44 51 55 46 70 66 95 97 96 90 90 83 80 83 84 84 81 81 81 79 73 75 77 78 81 78 80 79 77 79 82 77 78 77 76
86 72 48 49 46 38 46 40 45 57 53 70 46 38 41 91 87 87 87 78 83 81 82 84 85 85 83 85 83 78 76 76 76 82 78 77 78 79 83 85 80 80 80 78
64 55 53 41 45 41 40 35 77 84 87 69 49 42 29 30 54 68 78 80 82 83 83 82 88 92 90 89 85 80 78 78 75 79 78 77 75 74 74 75 78 86 82 82
90 79 63 57 44 48 43 49 72 92 71 48 43 43 32 52 61 64 75 81 87 89 83 83 86 88 90 90 88 82 78 76 79 77 76 76 76 75 74 74 76 76 74 76
81 76 66 52 51 41 40 49 47 47 49 49 42 34 33 61 64 63 69 75 73 70 72 75 78 83 88 89 90 88 84 77 79 77 75 78 76 75 76 76 73 75 76 77
88 82 72 56 46 42 40 36 46 54 63 54 45 37 37 46 59 63 66 70 70 68 66 66 65 67 69 79 89 90 87 83 83 85 82 78 78 77 75 75 75 75 74 75
95 66 68 55 58 48 41 45 51 48 61 67 52 39 38 33 60 65 65 66 67 68 66 64 62 60 61 62 68 82 87 93 91 90 88 88 88 85 81 80 77 78 74 72
91 78 78 70 64 68 55 46 42 49 50 64 54 42 72 72 69 65 64 63 61 61 61 60 59 58 59 60 61 64 70 72 71 72 83 91 88 91 93 89 84 82 80 76
90 86 82 68 57 64 65 59 48 53 54 52 57 37 74 73 70 65 65 61 58 56 57 55 56 57 57 60 60 64 66 70 71 74 80 82 94 92 93 90 88 88 84 82
85 93 74 57 60 69 62 58 51 46 52 55 48 42 73 81 75 70 64 59 56 55 55 52 54 54 54 57 59 61 70 72 79 75 79 82 86 87 89 93 91 92 91 89
90 95 96 96 95 84 70 62 53 50 46 43 42 50 48 70 76 70 62 56 53 51 52 53 52 52 54 55 57 58 64 69 73 77 81 79 76 78 82 85 87 91 95 92
88 97 92 92 92 91 79 71 62 56 52 47 52 54 72 79 68 67 59 52 52 50 51 51 51 53 55 54 55 58 64 64 68 67 71 72 69 70 78 79 84 85 88 91
98 97 96 95 88 89 82 78 74 66 64 57 58 57 77 77 66 65 58 50 49 49 51 51 53 54 56 56 55 62 64 61 65 65 64 65 66 70 73 78 85 87 86 87
94 98 98 97 97 97 74 78 67 71 71 66 65 71 73 74 65 60 55 53 49 48 52 50 53 53 55 55 56 61 64 65 64 63 62 64 68 70 71 74 84 90 91 90
94 98 100 97 98 83 88 83 82 80 66 70 65 72 70 67 63 63 51 50 52 53 53 53 54 55 53 53 56 58 65 71 64 65 66 66 68 69 69 72 74 78 88 92
84 88 94 98 100 96 75 87 83 83 81 70 65 67 70 65 80 74 54 51 52 50 50 53 51 52 54 55 54 58 65 71 64 65 68 66 67 67 69 69 70 75 78 85
95 97 100 100 100 87 85 88 84 81 73 65 65 67 69 73 69 60 52 51 50 50 49 53 55 55 56 57 57 58 61 62 61 64 67 66 65 67 63 66 70 75 79 80
84 94 100 99 100 91 88 92 86 84 64 62 65 61 71 59 55 52 49 50 49 51 51 52 57 56 56 55 58 60 61 59 61 64 65 63 63 62 59 70 72 70 76 80
86 82 88 88 88 84 87 87 93 82 66 57 59 56 62 65 55 49 53 55 57 58 53 57 63 59 55 57 59 64 62 63 65 67 65 64 61 60 62 67 71 76 78 77
90 99 90 75 77 81 76 92 81 63 56 55 64 68 57 55 60 76 77 78 78 72 73 73 73 72 71 68 64 66 64 65 68 68 67 66 65 67 67 66 69 76 79 81
90 94 91 88 79 85 79 82 83 64 55 57 62 66 58 56 58 64 62 62 62 58 62 62 64 65 69 66 67 67 66 69 72 68 66 65 67 72 71 69 71 72 73 75
94 80 74 59 62 76 69 87 87 74 65 62 62 62 58 56 64 63 70 70 70 70 72 67 67 69 72 73 73 69 68 72 78 78 70 74 73 71 68 70 71 67 69 71

GFSCGP_sfc_rhum_342.txt.gz
RH
83 82 98 99 90 56 48 35 30 26 35 31 31 54 69 80 78 76 77 81 78 76 72 73 72 75 71 65 63 62 60 59 59 60 60 59 61 60 57 54 55 53 53 54
86 94 94 96 92 53 39 33 30 32 44 40 53 58 62 71 72 62 70 78 77 75 80 82 82 80 74 68 65 64 60 60 58 56 55 54 55 57 56 58 58 55 53 55
66 90 87 98 64 58 36 31 33 34 51 49 47 74 76 71 68 68 70 71 73 73 79 83 86 85 76 71 67 61 58 60 57 54 57 60 58 60 63 62 62 60 55 57
86 79 83 88 58 46 40 27 26 48 33 42 34 36 56 73 78 73 77 81 71 70 66 72 77 82 79 67 63 60 60 60 58 58 61 64 64 63 60 62 58 57 56 57
98 86 86 69 60 34 34 32 31 33 28 32 30 31 29 64 85 80 71 77 76 68 71 68 70 72 74 67 66 62 69 71 64 62 60 62 62 56 56 66 64 58 58 58
83 64 44 40 36 28 34 28 31 36 36 59 32 26 37 55 48 60 67 75 75 70 66 65 65 72 78 69 68 66 65 76 72 70 63 64 65 66 76 77 69 59 58 60
55 45 38 33 36 34 30 30 71 65 84 53 37 28 22 40 47 45 70 78 73 65 64 72 78 81 82 77 75 70 72 77 71 64 62 62 63 67 74 73 72 72 60 70
74 76 40 37 31 34 29 30 56 81 67 44 32 36 22 29 43 52 60 58 60 67 62 70 75 78 77 77 78 71 69 73 74 76 75 72 67 59 69 70 66 58 69 71
62 55 47 40 34 27 32 38 29 37 32 37 28 24 22 43 48 56 67 71 71 70 71 75 74 70 76 74 73 71 67 65 67 73 72 70 69 69 73 68 65 66 66 66
57 57 46 38 33 28 29 26 39 34 58 44 32 29 27 35 38 50 64 70 68 66 66 64 62 63 65 67 72 71 68 65 62 65 70 71 65 58 63 58 64 61 67 66
71 39 47 40 41 28 32 30 31 28 35 48 32 28 19 22 27 43 51 57 60 63 63 62 60 58 59 59 64 72 75 76 70 67 65 71 70 66 58 59 61 62 61 58
72 45 43 37 45 44 38 25 24 32 38 39 30 24 44 42 40 43 50 54 55 58 58 58 58 58 59 61 63 66 68 69 69 68 72 76 73 72 76 73 67 62 63 60
78 53 58 59 42 42 39 36 32 33 30 30 36 22 51 51 49 49 48 50 51 53 54 53 55 56 57 58 60 67 71 74 75 70 76 78 81 86 80 75 77 79 79 77
79 70 49 41 40 39 40 41 33 28 30 26 26 21 37 46 50 50 49 49 48 50 52 51 50 51 53 55 57 60 67 70 77 81 80 78 78 80 83 84 86 88 76 78
80 92 73 71 73 61 52 41 38 33 26 29 22 25 18 29 41 46 48 50 48 48 48 48 48 47 50 52 55 57 64 64 69 76 80 79 73 68 75 79 81 82 86 92
80 97 82 76 75 72 60 50 45 38 35 27 29 28 38 49 42 48 49 49 48 46 45 44 45 45 47 46 49 55 60 63 62 63 72 69 70 73 74 74 79 83 82 81
94 99 98 93 77 81 79 57 48 40 35 32 40 31 46 53 52 48 47 46 45 42 42 40 42 43 44 45 46 53 56 58 58 61 61 61 63 69 73 71 78 82 86 84
92 94 99 99 94 97 48 55 55 49 44 40 44 44 42 44 51 45 43 43 41 39 41 38 39 40 41 41 45 45 52 57 55 57 57 58 62 62 63 64 71 74 80 87
79 92 99 97 90 78 58 64 58 57 46 46 44 47 52 52 48 48 42 39 39 38 40 39 39 41 39 39 42 42 49 56 49 51 54 56 58 59 59 62 62 62 70 75
77 84 96 96 96 88 54 67 59 58 57 51 50 48 52 52 54 38 42 40 39 39 38 40 39 41 39 41 40 43 48 51 47 51 54 52 53 51 52 52 52 56 58 62
90 92 97 97 98 84 68 64 67 80 53 53 48 47 50 52 47 44 41 40 37 37 39 40 39 39 41 41 42 44 45 46 49 51 52 52 50 52 48 49 52 55 54 55
75 81 87 93 98 87 65 74 73 67 51 49 49 48 49 46 46 44 42 41 39 40 42 40 40 41 42 44 43 44 45 49 50 52 51 50 50 48 46 53 53 52 54 59
76 67 59 69 64 61 65 69 70 59 52 47 47 46 51 52 47 43 42 40 38 38 40 45 47 44 44 46 48 49 50 52 53 52 51 51 50 48 51 54 55 58 59 63
70 83 75 65 68 57 55 63 62 55 48 42 42 43 46 46 42 42 43 44 48 50 52 55 54 53 53 54 54 56 55 60 64 62 58 54 54 59 55 56 56 61 64 66
61 74 64 76 73 61 64 59 57 57 42 41 46 44 42 42 41 42 46 50 48 47 50 51 50 52 54 54 56 55 56 59 61 59 58 58 63 67 64 62 64 64 62 64
79 77 46 40 42 58 44 61 57 66 54 42 49 51 42 40 46 47 45 42 43 45 51 49 51 53 56 58 58 57 60 62 64 62 56 59 61 60 59 60 61 60 65 68

GFSCGP_sfc_rhum_348.txt.gz
RH
96 97 100 100 79 87 93 95 56 32 28 40 41 57 68 70 77 82 78 79 84 85 76 78 79 85 86 84 77 82 82 66 72 78 80 81 82 76 73 70 63 62 65 63
95 99 94 81 80 82 81 83 84 33 28 35 42 65 63 84 79 81 76 76 80 82 82 82 82 84 87 83 77 85 73 60 59 74 74 75 77 77 74 73 68 66 67 68
84 88 75 84 87 78 74 59 81 40 37 37 39 83 79 78 73 68 79 74 75 80 85 83 84 84 86 84 82 74 63 60 65 68 71 69 71 78 80 79 81 73 67 69
85 75 76 86 83 68 87 67 43 40 48 63 42 92 85 86 75 74 84 86 84 80 80 79 81 82 80 85 88 72 64 71 69 69 74 75 81 85 83 83 83 78 69 71
92 84 84 89 74 65 60 57 41 42 46 58 54 88 61 76 85 78 88 86 82 81 80 81 80 76 78 81 81 73 73 72 64 63 72 78 82 81 82 84 82 83 78 74
73 62 72 78 67 65 53 54 43 68 74 89 52 67 57 81 70 71 75 78 79 80 76 76 76 74 76 84 80 78 73 68 62 68 72 76 81 81 86 88 88 87 84 82
63 58 67 61 58 67 66 62 94 94 95 94 60 58 48 52 47 57 67 72 74 77 76 78 80 80 78 82 86 84 79 71 66 78 76 75 78 79 82 85 91 89 81 87
90 94 63 49 49 57 55 66 89 96 96 82 41 58 39 47 53 46 54 65 69 75 72 76 80 79 82 82 81 84 81 78 77 82 82 79 76 80 80 82 86 82 80 70
84 78 48 40 37 36 45 58 37 47 50 65 53 43 33 42 59 74 67 70 82 86 78 77 82 80 82 83 84 82 79 74 72 79 77 79 74 78 81 80 77 76 72 75
78 74 44 41 39 36 41 35 55 55 68 67 61 49 49 43 50 71 84 76 84 85 86 80 76 74 71 72 79 80 82 79 71 73 78 75 71 76 77 82 85 76 71 76
75 62 57 44 46 47 43 47 43 44 58 76 64 55 30 34 40 62 78 63 89 89 85 77 70 65 63 70 71 76 76 77 79 74 79 82 78 75 77 78 76 78 68 66
71 85 66 56 48 42 47 42 38 58 50 61 58 50 42 36 34 49 65 82 82 81 77 74 66 63 63 69 67 74 80 79 83 80 80 80 82 82 85 80 76 70 71 67
84 78 79 71 51 47 48 36 36 36 38 46 68 46 40 46 53 47 71 71 72 72 72 70 71 66 63 63 66 70 70 80 84 83 83 81 78 74 78 79 84 84 87 95
78 84 66 64 60 45 50 39 38 40 52 46 40 41 47 49 51 59 63 63 67 69 68 70 71 64 60 60 63 68 72 74 76 84 84 83 80 77 74 76 76 80 82 86
86 97 78 64 60 59 50 42 43 44 41 45 40 33 32 40 48 53 58 57 59 63 67 69 67 66 60 59 58 64 66 70 67 80 84 82 78 78 81 77 76 78 82 83
91 93 91 88 58 64 66 53 44 38 37 34 33 32 42 60 44 49 54 54 55 59 62 64 62 59 56 55 55 56 60 64 62 68 70 70 73 84 84 79 81 78 81 82
95 97 96 96 82 87 82 71 61 50 43 35 45 36 42 50 49 50 56 54 55 57 59 60 57 55 52 53 52 60 57 57 57 61 57 57 59 61 66 64 72 79 81 78
96 97 97 96 91 98 60 56 57 50 42 41 42 43 43 46 60 53 53 55 56 55 56 54 53 52 51 53 53 53 58 60 60 61 57 54 56 56 55 57 60 62 66 68
81 96 99 97 96 79 74 65 63 66 55 47 45 44 58 56 54 67 54 55 56 55 53 53 54 54 47 48 46 49 59 60 59 61 61 59 61 59 57 57 56 58 64 66
74 86 99 99 97 93 69 70 58 66 77 57 59 55 58 56 62 58 59 54 54 55 53 57 56 50 48 46 44 52 58 57 59 59 59 56 59 58 58 58 60 62 61 54
96 94 98 95 90 87 83 71 69 80 67 60 56 60 58 62 61 58 52 51 50 51 54 49 50 48 48 45 46 55 53 60 58 57 57 57 56 58 54 59 62 63 63 63
88 94 96 94 92 93 71 76 82 78 60 57 58 58 59 56 53 54 55 54 49 53 51 43 48 52 50 50 49 53 60 57 56 57 56 56 56 50 51 62 63 63 67 72
82 82 84 83 80 69 72 86 85 77 62 61 62 59 60 63 58 56 56 52 50 52 49 43 47 49 50 52 50 57 59 61 62 61 63 62 60 62 62 65 68 74 73 77
85 87 88 74 72 62 59 74 70 68 68 56 57 58 58 58 56 57 57 56 55 53 50 48 48 51 57 57 57 61 59 61 63 62 62 62 65 72 69 68 70 78 80 81
81 80 85 87 77 72 64 67 65 69 59 49 53 57 60 57 57 56 56 52 50 48 51 56 56 57 63 60 63 60 62 65 62 61 58 61 65 68 66 64 69 70 72 72
78 75 67 45 45 73 72 76 69 78 67 55 56 54 57 56 57 56 58 54 54 57 59 59 55 58 62 62 64 64 67 68 69 63 58 65 70 71 68 71 74 60 60 59

GFSCGP_sfc_rhum_354.txt.gz
RH
90 95 98 100 98 82 86 82 80 78 80 91 74 64 95 94 92 91 93 77 86 83 86 88 83 84 95 96 96 92 94 85 77 81 74 75 81 88 86 82 76 76 77 77
95 93 94 90 81 76 88 80 88 77 76 87 62 77 98 97 96 92 90 76 78 87 97 95 90 88 91 96 93 92 91 85 79 81 83 81 82 88 83 82 78 76 75 78
89 86 82 83 86 82 84 95 90 86 78 84 79 86 88 95 94 90 88 80 73 88 94 88 94 92 94 96 95 90 88 86 86 84 86 82 84 88 90 88 86 82 77 77
74 86 86 92 86 70 92 73 71 91 96 98 76 95 94 87 94 97 94 92 71 72 95 86 93 92 94 95 92 91 91 88 84 76 76 73 72 81 90 91 89 85 79 79
89 96 94 91 76 62 80 78 78 77 97 98 81 84 82 88 87 96 96 92 77 69 94 97 94 87 89 92 94 89 88 82 77 76 70 75 86 87 91 93 90 90 87 82
92 80 82 78 64 70 73 87 85 91 95 99 80 76 77 88 71 94 92 89 77 68 94 93 94 82 90 91 91 87 83 82 77 75 75 77 80 87 91 92 91 93 91 88
84 77 74 71 72 76 81 94 99 99 99 98 81 71 64 72 60 62 88 86 78 71 92 94 94 91 90 93 90 85 80 78 73 76 76 75 77 80 82 84 84 94 94 95
96 95 77 63 70 81 76 79 88 93 97 89 78 80 54 54 54 52 71 77 78 77 87 91 91 88 84 89 89 83 79 75 71 72 75 73 73 76 78 78 79 84 84 83
93 86 64 53 48 63 79 88 65 79 77 74 83 64 39 66 71 74 87 88 90 89 89 92 91 89 86 86 86 82 77 72 69 73 75 74 74 77 80 84 83 81 82 80
86 86 62 54 43 44 67 60 64 69 83 78 76 66 55 68 69 72 81 89 91 90 91 92 92 90 88 86 84 84 78 78 75 74 73 72 73 78 79 84 85 84 80 85
90 77 67 49 49 66 54 61 56 57 74 82 79 58 42 46 57 67 72 83 87 92 92 91 90 94 97 96 95 93 92 88 86 78 75 74 75 76 82 87 84 83 80 80
86 88 75 61 50 46 47 49 55 66 56 71 73 62 49 51 56 61 61 73 82 85 90 98 96 96 97 97 95 88 88 88 87 86 87 85 90 89 88 93 92 89 85 79
88 87 85 74 58 57 53 47 46 49 55 60 72 52 42 55 62 58 79 86 93 97 97 95 92 93 88 84 88 90 92 93 92 90 90 88 86 84 84 83 84 91 96 97
82 90 77 69 66 57 60 50 47 46 63 63 58 50 43 38 50 70 95 98 97 96 94 88 78 74 74 79 84 85 91 91 94 93 93 93 91 89 87 82 82 82 80 83
89 95 92 84 69 65 57 52 49 49 50 51 55 44 37 34 40 72 90 94 94 93 93 90 81 75 75 78 82 80 82 84 90 92 93 93 89 88 89 89 88 89 89 85
92 95 93 86 74 73 71 62 60 54 48 46 45 42 37 61 65 84 87 93 94 94 93 92 89 83 76 79 82 79 78 78 80 86 89 87 89 88 89 87 87 86 86 85
98 99 96 91 86 85 88 72 69 68 53 45 52 40 45 51 45 52 82 85 89 88 88 89 87 86 88 84 77 79 77 76 75 80 75 70 72 75 76 76 77 81 81 80
97 98 100 98 92 99 60 64 65 57 47 51 44 43 42 37 44 49 70 72 76 80 81 84 82 74 70 73 74 71 64 65 69 68 62 62 65 62 63 65 65 65 68 71
81 98 99 100 97 82 70 66 68 72 63 56 51 45 45 68 65 62 56 62 69 73 81 77 70 67 66 67 70 74 70 67 66 65 64 63 63 63 64 64 62 63 66 66
80 93 99 98 99 97 71 70 69 71 85 55 60 66 58 62 58 40 74 70 72 75 71 70 65 64 61 61 70 70 72 69 68 63 63 64 63 60 60 61 62 65 68 68
97 99 97 94 98 88 74 71 75 82 75 61 60 65 69 63 60 66 65 65 65 67 66 60 58 59 57 58 68 71 67 66 64 64 65 64 62 62 66 69 70 73 75 78
91 96 98 96 100 93 69 78 76 75 64 60 60 63 64 65 59 61 62 65 63 64 61 56 57 56 56 62 65 68 66 65 65 65 65 64 64 58 62 73 76 75 82 84
88 82 88 84 79 62 74 83 86 83 67 62 61 60 60 67 63 60 61 60 60 58 56 55 55 58 56 59 63 64 67 65 65 66 68 68 69 67 68 76 82 80 84 85
83 93 91 79 70 66 61 79 80 75 69 61 58 59 57 57 59 59 61 61 62 57 57 56 56 59 60 60 58 65 68 69 70 71 72 71 76 72 73 70 71 79 83 86
76 85 82 84 75 61 58 76 75 68 72 67 58 59 57 57 60 58 58 58 57 50 52 55 57 58 64 68 68 67 66 68 65 65 65 71 72 72 70 69 73 71 75 75
79 70 64 75 53 60 59 79 77 84 80 76 64 59 61 59 60 60 60 57 56 53 53 55 56 60 66 67 68 71 69 67 66 65 64 70 69 70 68 69 71 62 61 61

GFSCGP_sfc_rhum_357.txt.gz
RH
86 95 98 91 87 89 98 98 70 83 71 90 80 79 81 96 94 90 92 84 79 83 80 91 89 91 93 94 93 89 89 89 88 88 83 82 88 93 90 88 80 80 80 79
87 96 87 83 91 98 98 92 94 94 83 81 84 82 90 94 92 86 82 83 83 86 96 93 96 94 95 92 93 93 86 87 83 79 79 86 90 93 86 87 83 81 81 81
85 80 82 85 90 95 93 96 91 91 86 88 89 84 98 90 92 92 86 80 75 80 90 88 96 97 95 92 94 91 86 84 80 80 80 84 83 90 91 91 89 86 81 82
82 86 86 86 86 81 97 79 80 85 89 99 92 98 90 94 98 94 90 92 73 78 78 87 95 92 96 94 93 89 89 85 86 80 77 78 77 80 89 89 90 87 82 83
84 88 94 92 79 71 87 74 82 90 98 97 100 99 88 91 97 96 92 93 75 79 88 81 82 86 88 93 96 92 91 92 90 94 82 76 75 81 91 90 85 89 88 83
89 84 85 86 76 78 78 80 85 90 93 98 99 97 85 91 75 91 90 93 87 70 90 82 80 80 90 92 93 94 94 94 91 87 85 81 82 81 91 89 88 92 92 90
78 78 76 78 92 82 80 87 99 98 99 97 92 98 83 72 59 67 92 94 90 78 81 95 96 90 87 96 94 92 92 94 90 84 80 75 77 77 80 83 83 91 92 95
94 93 88 72 82 88 89 87 85 92 97 96 86 95 76 56 54 56 64 79 85 82 76 89 94 94 93 94 93 90 87 89 87 83 81 77 75 75 75 79 80 82 82 82
93 84 70 65 57 73 84 89 68 79 80 84 89 73 47 57 72 66 77 86 86 83 82 91 92 94 94 90 91 89 86 82 80 82 80 80 80 79 78 84 83 84 85 85
88 87 62 58 49 54 75 69 72 69 83 76 78 78 60 56 64 66 72 86 86 85 88 91 92 92 91 89 85 86 83 81 75 74 85 85 81 79 82 90 88 88 86 89
92 81 71 54 54 76 62 64 66 62 76 82 73 65 50 49 56 64 65 78 84 90 89 91 92 90 89 91 91 89 89 84 79 76 77 82 83 81 85 86 86 84 83 86
90 86 81 64 54 56 57 54 63 69 62 76 76 60 47 53 57 68 64 70 83 89 90 90 92 96 98 96 97 96 97 95 95 92 88 86 82 82 85 86 86 88 86 83
87 87 88 79 64 61 57 52 53 55 58 64 74 55 41 53 61 55 78 81 88 92 94 97 99 98 98 98 98 97 96 97 93 93 93 94 94 97 97 97 96 97 97 96
82 90 83 76 68 63 63 52 51 51 67 68 60 53 51 44 37 43 74 95 99 99 99 99 99 98 98 97 97 97 98 96 96 96 95 96 94 94 94 94 93 94 92 94
90 99 91 88 83 73 60 56 50 53 54 57 63 50 42 46 53 56 74 96 99 99 99 97 89 85 88 93 94 94 95 97 96 95 95 95 93 91 92 92 93 93 91 89
93 98 94 91 73 80 82 66 61 53 52 47 53 48 39 57 72 70 74 91 97 96 96 94 88 87 86 92 94 92 93 94 93 97 98 96 95 94 93 92 90 89 89 89
98 99 99 93 91 87 92 74 68 69 61 52 56 44 43 46 48 45 58 88 89 93 94 94 92 89 88 90 90 93 92 92 92 94 90 89 91 89 90 88 88 89 88 88
98 98 98 98 93 97 63 66 69 63 55 57 48 51 46 42 46 50 63 73 84 90 93 94 95 95 87 85 85 82 82 84 86 84 80 76 77 74 75 76 78 76 78 80
78 99 99 100 97 84 72 66 68 74 68 68 62 54 57 64 62 46 59 77 80 87 91 93 90 87 81 76 78 73 75 75 76 74 73 71 72 72 69 69 66 67 68 67
91 96 99 97 99 98 73 73 67 67 87 62 66 67 69 70 66 50 69 71 78 85 86 84 78 76 76 80 75 74 72 67 68 65 65 62 63 62 63 63 63 63 64 67
96 97 95 92 97 88 74 70 74 83 71 61 61 74 76 72 67 68 65 68 72 75 76 72 69 70 72 79 74 76 74 72 64 61 61 60 59 59 61 63 64 68 70 74
91 96 98 96 98 92 76 83 80 77 74 70 67 68 70 66 64 66 66 68 70 73 67 64 65 63 66 75 72 73 71 69 69 70 68 66 66 60 65 75 79 78 84 86
88 80 83 80 75 61 76 84 87 84 72 73 70 62 65 75 64 63 64 66 65 63 61 59 57 59 65 69 68 67 70 67 68 68 68 70 66 66 69 79 84 80 86 86
87 93 91 80 73 72 61 77 80 76 75 71 64 64 61 61 61 60 64 64 65 62 60 59 56 58 60 64 60 67 67 67 68 69 72 75 76 78 77 70 71 80 86 87
72 84 85 88 77 68 66 73 67 70 72 79 75 67 61 62 60 60 61 61 59 56 57 57 57 57 63 67 69 66 67 68 67 69 69 74 74 77 75 73 77 72 81 80
80 68 66 69 49 69 65 79 76 76 65 66 75 72 64 65 63 61 63 62 60 57 58 59 59 60 68 69 70 70 68 67 67 69 68 73 69 72 72 77 79 64 65 63

GFSCGP_sfc_rhum_360.txt.gz
RH
85 95 99 89 91 82 94 98 98 82 86 94 84 85 75 88 86 93 91 93 86 82 93 91 90 91 95 95 94 96 96 96 94 92 94 93 94 96 96 95 89 89 88 86
94 95 77 85 81 89 87 98 94 78 79 90 88 88 84 96 91 87 86 86 84 85 98 97 96 95 94 94 92 93 91 94 92 89 89 88 94 94 86 91 87 85 84 85
93 74 79 86 96 98 96 99 92 92 88 88 90 88 88 96 96 92 88 84 84 84 95 97 97 96 94 93 94 89 87 89 90 89 87 85 90 93 94 95 93 89 84 83
88 82 89 94 100 94 99 95 77 91 87 99 92 98 91 97 95 97 94 92 81 84 91 90 92 95 89 90 90 91 89 88 88 88 82 81 82 88 92 91 93 90 86 86
80 93 90 98 91 87 99 83 82 87 94 96 100 99 92 97 92 87 98 94 85 82 83 86 91 90 87 87 90 92 90 87 85 85 81 79 81 86 90 93 88 90 91 87
84 79 85 83 80 78 76 81 81 87 88 98 100 99 89 97 87 90 85 88 84 76 70 80 94 93 88 90 88 89 93 90 90 88 90 89 86 88 92 92 86 89 94 93
73 89 84 73 90 85 91 89 98 94 96 98 96 97 86 73 73 81 87 85 91 74 71 78 91 92 81 92 92 92 91 92 92 92 94 93 93 89 89 84 81 92 91 96
91 78 88 82 75 80 92 90 91 93 95 94 95 97 77 66 56 67 79 85 87 85 81 83 81 85 82 84 89 94 94 93 92 92 92 90 90 87 83 77 78 82 79 83
96 85 85 73 64 71 82 89 75 78 84 93 94 80 55 59 74 68 82 88 92 85 82 87 90 85 81 80 84 91 91 90 92 91 90 90 85 87 80 81 81 81 87 86
88 87 76 67 56 59 72 67 76 76 90 84 83 80 63 72 79 73 74 88 89 89 87 87 92 92 86 82 84 90 88 86 86 91 90 89 86 83 84 88 84 87 85 90
91 82 75 64 65 80 77 75 74 66 78 84 73 61 55 48 59 70 65 73 86 90 88 89 91 91 91 92 94 94 91 89 87 87 89 87 90 91 92 90 86 84 84 87
90 88 86 71 59 65 71 67 74 75 68 78 76 57 45 44 51 67 70 74 86 88 88 89 90 92 94 95 94 95 94 91 88 84 85 86 85 88 92 91 88 88 88 89
89 90 91 78 66 64 68 58 59 63 63 71 76 56 40 46 59 57 64 77 85 92 94 94 96 95 94 94 94 96 96 94 94 92 90 90 89 89 92 92 92 96 95 95
83 93 87 78 72 70 71 61 58 57 76 77 65 58 46 44 40 44 71 86 86 92 99 99 99 98 96 96 93 96 99 97 96 95 94 95 97 96 97 98 98 98 98 99
92 99 90 87 84 86 76 64 58 57 56 63 67 55 46 53 52 56 67 87 96 99 99 98 98 99 99 99 99 99 99 99 97 97 98 98 97 95 95 97 95 95 94 93
94 98 95 96 77 81 83 77 66 56 54 48 56 53 44 53 59 58 54 76 83 93 98 98 97 97 98 98 98 99 99 99 97 98 99 97 97 97 98 98 97 97 96 97
99 99 99 97 88 88 92 82 71 67 58 50 58 45 46 44 47 45 46 66 67 74 90 97 97 94 95 97 96 98 98 98 98 98 99 98 97 98 96 95 95 96 95 94
98 98 99 98 95 99 66 66 72 62 53 57 55 55 55 49 50 48 49 50 56 75 86 94 96 96 96 96 96 94 94 95 97 96 93 93 92 92 90 89 89 88 87 89
92 98 98 100 98 83 63 68 74 77 75 70 71 66 73 67 64 61 67 71 76 82 86 93 95 95 94 91 88 87 89 91 90 92 90 87 84 85 82 82 78 74 79 79
97 97 98 98 97 98 70 75 72 68 86 61 67 68 76 71 71 65 68 69 73 82 90 95 95 93 85 85 84 88 90 87 88 82 78 76 78 78 81 77 74 70 70 75
96 97 95 94 96 90 73 68 71 84 77 62 63 73 74 75 72 64 67 71 72 76 80 81 85 90 86 75 78 81 81 83 77 74 70 68 66 67 66 66 64 68 72 78
90 95 96 97 97 92 69 81 76 77 74 69 71 72 73 72 63 63 63 68 75 75 72 72 78 81 84 80 78 80 79 74 71 63 62 60 59 54 59 65 69 70 77 79
91 80 84 80 75 61 72 81 88 82 73 73 72 71 66 74 66 63 64 68 66 69 67 65 67 75 79 76 74 75 75 72 72 68 68 63 59 60 63 69 76 74 81 83
85 91 90 80 70 66 57 78 78 79 77 75 72 70 68 67 66 64 63 66 68 65 63 61 62 67 70 70 65 72 69 70 68 69 74 73 74 78 77 71 72 80 86 87
78 80 80 88 78 69 67 69 58 69 71 72 71 72 65 68 66 65 66 65 65 61 59 60 61 61 68 69 70 66 66 66 66 72 75 74 78 82 80 75 78 73 85 79
87 76 70 65 52 68 66 76 73 67 61 55 60 60 64 69 69 69 70 69 66 63 61 61 60 63 70 70 71 71 69 67 68 71 71 73 70 72 73 78 83 69 69 66